Regional Weather Roundup
Issued by NWS

Home | Current Version | Previous Version | Text Only | Print | Product List | Glossary Off
Versions: 1 2 3 4 5 6 7 8 9 10 11 12 13 14 15 16 17 18 19 20 21 22 23 24 25 26 27 28 29 30 31 32 33 34 35 36 37 38 39 40 41 42 43 44 45 46 47 48 49 50

074
ASUS43 KDMX 260203
RWRIA

WEATHER ROUNDUP FOR IOWA
NATIONAL WEATHER SERVICE DES MOINES IA
900 PM CDT WED MAY 25 2016

NOTE: "FAIR" INDICATES FEW OR NO CLOUDS BELOW 12,000 FEET WITH NO
SIGNIFICANT WEATHER AND/OR OBSTRUCTIONS TO VISIBILITY.

* - THESE STATIONS ARE NOT NWS STATIONS...THUS NOT UNDER NWS
QUALITY CONTROL.  THEY ALSO DO NOT REPORT WEATHER SUCH
AS PRECIPITATION OR FOG.

IAZ001>003-012>014-020>022-031>034-043>046-260300-
   NORTHWEST IOWA

CITY           SKY/WX    TMP DP  RH WIND       PRES   REMARKS
CARROLL *      MOCLDY    72  66  83 S7        29.83S
CHEROKEE *     CLEAR     72  64  75 S6        29.80S
DENISON *      MOCLDY    73  66  78 S6        29.81S
LE MARS *      PTCLDY    77  64  65 S8G15     29.79S
ORANGE CITY *  CLEAR     73  63  68 CALM      29.80R
SHELDON *      CLEAR     73  61  64 CALM      29.79R
SIOUX CITY     CLOUDY    76  64  66 S12       29.78S
SPENCER        MOCLDY    73  61  65 S5        29.80S
STORM LAKE *   PTCLDY    75  61  60 S13       29.82S
$$

IAZ055>058-069>071-079>083-090>094-260300-
   SOUTHWEST IOWA

CITY           SKY/WX    TMP DP  RH WIND       PRES   REMARKS
ATLANTIC *     CLOUDY    73  70  88 CALM      29.84S
AUDUBON *      MOCLDY    72  66  83 CALM      29.85F
CLARINDA *       N/A     73  68  83 MISG      29.85S
COUNCIL BLFS * MOCLDY    72  68  88 SE5       29.83F
CRESTON *      MOCLDY    72  66  83 S6        29.88R
HARLAN  *      MOCLDY    72  68  88 S5        29.87S
LAMONI         CLOUDY    74  65  73 S6        29.86F
RED OAK *      PTCLDY    73  68  83 SE5       29.83F
SHENANDOAH *   CLOUDY    73  70  88 SE5       29.84S
$$

IAZ047>049-059>061-072>074-084-260300-
   CENTRAL IOWA

CITY           SKY/WX    TMP DP  RH WIND       PRES   REMARKS
AMES           PTCLDY    71  63  75 S3        29.85S
ANKENY *       CLOUDY    73  66  78 S5        29.85R
BOONE *        CLOUDY    72  66  83 S6        29.84S
CHARITON *     CLOUDY    75  64  69 SW6       29.86F
DES MOINES     CLOUDY    76  64  66 S6        29.85S
GRINNELL*      CLOUDY    75  63  64 CALM      29.87S
KNOXVILLE *    CLOUDY    77  63  61 CALM      29.85S
MARSHALLTOWN   CLOUDY    73  62  68 S6        29.85S
NEWTON *       CLOUDY    75  64  69 CALM      29.86S
PELLA *        MOCLDY    76  65  69 W3        29.87S
PERRY *        CLOUDY    73  68  83 SE5       29.85R
$$

IAZ004>006-015-016-023>025-035-036-260300-
   NORTH CENTRAL IOWA

CITY           SKY/WX    TMP DP  RH WIND       PRES   REMARKS
ALGONA *       PTCLDY    75  57  53 CALM      29.81F
CLARION *      PTCLDY    70  66  88 S10       29.83S
ESTHERVILLE    PTCLDY    72  58  61 S5        29.80F
FORT DODGE *   PTCLDY    72  61  68 S7        29.83F
MASON CITY     PTCLDY    69  65  86 S7        29.84S
FOREST CITY *  CLOUDY    72  61  68 S8        29.82S
WEBSTER CITY * CLEAR     72  66  83 S10       29.82S
IOWA FALLS *   CLOUDY    73  63  68 S9        29.86S
$$

IAZ007>011-017>019-026>030-037>042-050>054-066-260300-
   NORTHEAST IOWA

CITY           SKY/WX    TMP DP  RH WIND       PRES   REMARKS
CEDAR RAPIDS   CLEAR     72  60  66 S6        29.86R
CHARLES CITY * CLEAR     73  61  64 S5        29.85S
CLINTON *      CLEAR     72  61  68 S9        29.89R
DECORAH *      CLEAR     72  63  73 CALM      29.85R
DUBUQUE        CLEAR     70  58  65 SW6       29.88R
MONTICELLO *   CLEAR     73  59  60 S5        29.87R
OELWEIN *      CLOUDY    75  59  57 SW6       29.86S
WATERLOO       MOCLDY    75  58  55 SW10      29.84S
$$

IAZ064-065-067-068-078-260300-
   EAST CENTRAL IOWA

CITY           SKY/WX    TMP DP  RH WIND       PRES   REMARKS
DAVENPORT      CLEAR     76  59  55 S6        29.89R
IOWA CITY      CLEAR     76  59  55 S7        29.88R
MT. PLEASANT * MOCLDY    77  66  69 CALM      29.89R
MUSCATINE *    CLEAR     75  61  60 CALM      29.88R
QUAD CITIES    CLEAR     75  61  61 S3        29.88R
$$

IAZ062-063-075>077-085>089-095>099-260300-
   SOUTHEAST IOWA

CITY           SKY/WX    TMP DP  RH WIND       PRES   REMARKS
BURLINGTON     CLEAR     74  62  66 S6        29.89R
FAIRFIELD *      N/A    N/A N/A N/A MISG        N/A
FORT MADISON * CLEAR     75  63  64 S6        29.91R
KEOKUK *       MOCLDY    77  64  65 S6        29.89R
OTTUMWA        CLOUDY    75  64  68 SE3       29.87R
WASHINGTON *   MOCLDY    75  70  83 S6        29.89S
$$

ABBREVIATIONS USED IN REMARKS
   TC - TEMPERATURES IN CELSIUS
  WCI - WIND CHILL INDEX
   HX - HEAT INDEX
  VSB - VISIBILITY
$$





USA.gov is the U.S. government's official web portal to all federal, state and local government web resources and services.